Location: Dehesa de la Cepeda
(40.6574°N, 4.3013°W)
Time: 02:55:07
(UTC+00:00)

Courier 1B - Pass Details

Date: 05 August 2021
Orbit: 963 x 1209 km, 28.3° (Epoch: 17 September)

Event Time Altitude Azimuth Distance (km) Brightness Sun altitude
Rises 22:36:46 0° 259° (W) 4,096 11.0 -27.5°
Reaches altitude 10° 22:41:00 10° 239° (WSW) 3,105 10.1 -27.9°
Enters shadow 22:42:54 14° 225° (SW) 2,813 9.7 -28.1°
Maximum altitude 22:45:12 16° 205° (SSW) 2,663 - -28.3°
Drops below altitude 10° 22:49:20 10° 172° (S) 3,023 - -28.6°
Sets 22:53:22 0° 151° (SSE) 3,930 - -29.0°
